"startDT [UTC]","vpos","CH4 [ppm]","stdev(CH4) [ppm]","CO2 [ppm]","stdev(CO2) [ppm]","H2O_reported [%]","stdev(H2O_reported)","CavityPressure [torr]","CavityTemp [C]","OutletValve","CH4_dry [ppm]","CO2_dry [ppm]","DasTemp [C]","EtalonTemp [C]","WarmBoxTemp [C]","MPVPosition","T_ECpre [C]","T_EC1 [C]","T_EC2 [C]","p_inlet [hPa]","p_in [hPa]","p_out [hPa]","T_inlet [C]","RH_inlet [%]","dwpt_inlet [C]","T_vent [C]","RH_vent [%]","dwpt_vent [C]","flow_vent [l min-1]","flow_inlet [l min-1]","dwpt_sample [C]","T_room [C]"
2016-05-15 00:00:00,3.0,1.87980,0.01308,399.175,2.922,0.0690,0.1066,139.987,45.000,31405.28427,1.88254,399.695,36.178,45.070,45.000,0.00,0.09,-272.77,-272.82,-6,493,-934,20.5,9.6,-12.6,20.6,9.7,-12.5,5.73,2.08,-10.6,26.8
2016-05-15 00:01:00,3.0,1.87631,0.00047,397.102,0.058,0.0141,0.0014,140.000,45.000,31394.38040,1.87652,397.167,36.186,45.070,45.000,0.00,0.08,-272.78,-272.83,-5,493,-934,20.5,9.6,-12.7,20.6,9.7,-12.5,5.73,1.74,-10.7,26.8
2016-05-15 00:02:00,3.0,1.87632,0.00035,397.397,0.076,0.0140,0.0016,139.999,45.000,31389.32545,1.87662,397.460,36.184,45.070,45.000,0.00,0.09,-272.78,-272.83,-6,493,-934,20.5,9.7,-12.5,20.6,9.7,-12.4,5.73,1.91,-10.7,26.8
2016-05-15 00:03:00,3.0,1.87603,0.00044,397.543,0.023,0.0117,0.0015,140.000,45.000,31389.66544,1.87623,397.598,36.188,45.070,45.000,0.00,0.09,-272.77,-272.83,-6,493,-934,20.5,9.7,-12.6,20.6,9.7,-12.5,5.73,2.01,-10.7,26.8
2016-05-15 00:04:00,3.0,1.87607,0.00048,397.539,0.030,0.0100,0.0026,139.998,45.000,31389.52904,1.87627,397.587,36.188,45.070,45.000,0.00,0.09,-272.77,-272.84,-5,493,-934,20.5,9.6,-12.6,20.6,9.7,-12.5,5.73,1.74,-10.7,26.8
2016-05-15 00:05:00,3.0,1.87618,0.00036,397.573,0.025,0.0085,0.0023,139.998,45.000,31388.75084,1.87631,397.613,36.188,45.070,45.000,0.00,0.08,-272.77,-272.84,-6,493,-934,20.5,9.6,-12.6,20.6,9.7,-12.5,5.73,1.91,-10.7,26.8
2016-05-15 00:06:00,3.0,1.87636,0.00029,397.590,0.029,0.0060,0.0018,140.001,45.000,31385.94577,1.87652,397.619,36.147,45.070,45.000,0.00,0.09,-272.77,-272.82,-5,493,-934,20.6,9.7,-12.5,20.6,9.7,-12.4,5.73,2.01,-10.7,26.9
2016-05-15 00:07:00,3.0,1.87633,0.00039,397.582,0.029,0.0045,0.0022,139.996,45.000,31386.20859,1.87639,397.604,36.128,45.070,45.001,0.00,0.09,-272.77,-272.83,-5,493,-934,20.6,9.7,-12.4,20.7,9.8,-12.3,5.73,1.75,-10.7,26.8
2016-05-15 00:08:00,3.0,1.87632,0.00035,397.599,0.035,0.0036,0.0025,140.000,45.000,31388.17721,1.87640,397.616,36.123,45.070,45.001,0.00,0.08,-272.78,-272.84,-6,494,-934,20.6,9.8,-12.4,20.7,9.8,-12.2,5.73,1.91,-10.8,26.9
2016-05-15 00:09:00,3.0,1.87623,0.00034,397.620,0.030,0.0038,0.0016,140.002,45.000,31389.00869,1.87628,397.638,36.107,45.070,45.001,0.00,0.09,-272.78,-272.83,-5,494,-934,20.6,9.7,-12.5,20.7,9.7,-12.3,5.73,2.01,-10.8,26.9
2016-05-15 00:10:00,3.0,1.87645,0.00031,397.622,0.029,0.0034,0.0021,139.999,45.000,31387.51236,1.87651,397.638,36.120,45.071,45.001,0.00,0.09,-272.77,-272.83,-6,494,-934,20.7,9.6,-12.6,20.7,9.6,-12.5,5.73,1.75,-10.8,26.9
2016-05-15 00:11:00,3.0,1.87636,0.00043,397.613,0.022,0.0038,0.0018,140.000,45.000,31388.62413,1.87644,397.630,36.110,45.070,45.001,0.00,0.08,-272.77,-272.84,-5,494,-934,20.7,9.7,-12.4,20.8,9.7,-12.4,5.73,1.89,-10.8,26.9
2016-05-15 00:12:00,3.0,1.87655,0.00040,397.621,0.024,0.0023,0.0024,140.003,45.000,31389.54863,1.87659,397.633,36.125,45.070,45.001,0.00,0.08,-272.78,-272.83,-5,494,-934,20.7,9.7,-12.4,20.8,9.7,-12.3,5.73,2.02,-10.8,26.9
2016-05-15 00:13:00,3.0,1.87664,0.00037,397.633,0.033,0.0012,0.0011,139.998,45.000,31388.35105,1.87666,397.637,36.122,45.070,45.000,0.00,0.09,-272.77,-272.82,-6,494,-934,20.8,9.7,-12.4,20.8,9.7,-12.3,5.73,1.76,-10.8,26.9
2016-05-15 00:14:00,3.0,1.87683,0.00020,397.630,0.033,0.0013,0.0015,139.999,45.000,31387.62241,1.87685,397.637,36.124,45.070,45.000,0.00,0.08,-272.77,-272.83,-5,494,-934,20.8,9.7,-12.4,20.8,9.7,-12.3,5.73,1.86,-10.8,27.0
2016-05-15 00:15:00,3.0,1.87701,0.00035,397.665,0.040,0.0010,0.0020,140.000,45.000,31387.11453,1.87703,397.670,36.125,45.070,45.000,0.00,0.08,-272.78,-272.83,-6,495,-934,20.8,9.7,-12.3,20.9,9.7,-12.2,5.73,2.03,-10.8,27.0
2016-05-15 00:16:00,3.0,1.87703,0.00032,397.650,0.030,0.0010,0.0019,140.000,45.000,31389.50946,1.87703,397.653,36.123,45.070,45.000,0.00,0.09,-272.77,-272.83,-6,495,-934,20.9,9.6,-12.4,20.9,9.7,-12.2,5.73,1.78,-10.8,27.0
2016-05-15 00:17:00,3.0,1.87676,0.00042,397.631,0.026,0.0010,0.0019,139.999,45.000,31391.13484,1.87679,397.636,36.125,45.070,45.000,0.00,0.09,-272.77,-272.84,-5,495,-934,20.9,9.6,-12.4,20.9,9.6,-12.3,5.73,1.83,-10.8,27.0
2016-05-15 00:18:00,3.0,1.87662,0.00038,397.623,0.030,0.0013,0.0022,140.000,45.000,31396.08145,1.87665,397.630,36.125,45.070,45.000,0.00,0.08,-272.78,-272.84,-7,495,-934,20.9,9.7,-12.2,21.0,9.7,-12.2,5.73,2.04,-10.8,27.0
2016-05-15 00:19:00,3.0,1.87658,0.00036,397.634,0.028,0.0001,0.0019,139.995,45.000,31394.94218,1.87658,397.634,36.125,45.070,45.000,0.00,0.09,-272.77,-272.84,-5,495,-934,21.0,9.7,-12.2,21.0,9.8,-12.1,5.73,1.83,-10.8,27.0
2016-05-15 00:20:00,0.0,1.90985,0.01256,404.633,2.901,0.2579,0.1140,140.010,45.000,31535.73458,1.91323,405.712,36.125,45.070,45.000,0.00,0.09,-272.76,-272.83,-7,515,-934,21.0,9.7,-12.2,21.0,9.8,-12.1,5.73,1.76,-10.8,27.1
2016-05-15 00:21:00,0.0,1.91464,0.00039,405.891,0.026,0.3221,0.0023,139.999,45.000,31554.37943,1.92079,407.478,36.125,45.070,45.000,0.00,0.08,-272.78,-272.83,-7,516,-934,21.0,9.7,-12.2,21.1,9.7,-12.0,5.73,2.06,-10.8,27.1
2016-05-15 00:22:00,0.0,1.91437,0.00043,405.878,0.035,0.3247,0.0018,139.995,45.000,31561.37295,1.92055,407.476,36.115,45.070,45.000,0.00,0.09,-272.78,-272.83,-7,517,-934,21.1,9.7,-12.2,21.1,9.7,-12.1,5.73,1.74,-10.8,27.1
2016-05-15 00:23:00,0.0,1.91419,0.00030,405.879,0.028,0.3260,0.0020,140.001,45.000,31567.74915,1.92038,407.484,36.085,45.070,45.000,0.00,0.09,-272.77,-272.83,-8,517,-934,21.1,9.7,-12.1,21.1,9.7,-12.1,5.73,2.04,-10.8,27.1
2016-05-15 00:24:00,0.0,1.91435,0.00037,405.893,0.027,0.3226,0.0016,140.001,45.000,31571.78607,1.92046,407.482,36.065,45.070,45.000,0.00,0.09,-272.78,-272.83,-7,517,-934,21.1,9.6,-12.2,21.2,9.7,-12.1,5.73,1.87,-10.8,27.1
2016-05-15 00:25:00,0.0,1.91430,0.00041,405.872,0.026,0.3253,0.0019,139.998,45.000,31575.82188,1.92051,407.473,36.080,45.070,45.000,0.00,0.08,-272.77,-272.84,-8,517,-934,21.1,9.6,-12.2,21.2,9.6,-12.1,5.73,1.83,-10.8,27.1
2016-05-15 00:26:00,0.0,1.91445,0.00028,405.894,0.037,0.3253,0.0024,139.999,45.000,31577.83595,1.92062,407.497,36.116,45.070,45.000,0.00,0.09,-272.78,-272.83,-6,518,-934,21.1,9.6,-12.2,21.2,9.6,-12.1,5.73,2.06,-10.8,27.1
2016-05-15 00:27:00,0.0,1.91418,0.00032,405.865,0.036,0.3289,0.0015,139.999,45.000,31582.66262,1.92043,407.484,36.127,45.070,45.000,0.00,0.09,-272.77,-272.82,-8,518,-934,21.1,9.7,-12.1,21.2,9.7,-12.0,5.73,1.74,-10.8,27.1
2016-05-15 00:28:00,0.0,1.91416,0.00028,405.874,0.030,0.3285,0.0017,140.002,45.000,31585.30675,1.92041,407.493,36.166,45.070,45.000,0.00,0.08,-272.78,-272.83,-7,518,-934,21.1,9.7,-12.1,21.2,9.7,-12.0,5.73,2.02,-10.8,27.1
2016-05-15 00:29:00,0.0,1.91440,0.00040,405.864,0.027,0.3254,0.0028,140.000,45.000,31584.16764,1.92057,407.469,36.181,45.069,45.000,0.00,0.09,-272.78,-272.83,-8,518,-934,21.1,9.6,-12.2,21.2,9.7,-12.1,5.73,1.90,-10.8,27.2
2016-05-15 00:30:00,0.0,1.91447,0.00040,405.844,0.033,0.3261,0.0036,140.000,45.000,31585.93703,1.92070,407.449,36.173,45.069,45.000,0.00,0.09,-272.76,-272.83,-7,518,-934,21.1,9.6,-12.2,21.2,9.6,-12.1,5.73,1.80,-10.8,27.2
2016-05-15 00:31:00,0.0,1.91434,0.00027,405.863,0.030,0.3260,0.0017,140.000,45.000,31587.84985,1.92051,407.467,36.158,45.069,45.000,0.00,0.08,-272.78,-272.84,-8,519,-934,21.2,9.6,-12.2,21.2,9.6,-12.1,5.73,2.07,-10.8,27.2
2016-05-15 00:32:00,0.0,1.91455,0.00040,405.875,0.037,0.3272,0.0017,139.999,45.000,31588.98630,1.92079,407.489,36.154,45.069,45.000,0.00,0.09,-272.77,-272.84,-8,518,-934,21.2,9.6,-12.1,21.2,9.6,-12.0,5.73,1.75,-10.8,27.2
2016-05-15 00:33:00,0.0,1.91436,0.00039,405.861,0.028,0.3279,0.0019,140.001,45.000,31590.11748,1.92059,407.475,36.163,45.070,45.000,0.00,0.09,-272.77,-272.83,-7,519,-934,21.1,9.6,-12.1,21.2,9.7,-12.1,5.73,1.98,-10.8,27.2
2016-05-15 00:34:00,0.0,1.91427,0.00031,405.872,0.026,0.3280,0.0022,140.001,45.000,31591.48152,1.92051,407.487,36.148,45.070,45.000,0.00,0.09,-272.78,-272.83,-8,519,-934,21.1,9.6,-12.1,21.2,9.7,-12.0,5.73,1.94,-10.8,27.2
2016-05-15 00:35:00,0.0,1.91440,0.00044,405.851,0.032,0.3291,0.0022,140.000,45.000,31590.65800,1.92064,407.472,36.164,45.070,45.000,0.00,0.09,-272.78,-272.84,-7,519,-934,21.1,9.7,-12.1,21.2,9.7,-12.1,5.73,1.77,-10.8,27.2
2016-05-15 00:36:00,0.0,1.91426,0.00040,405.869,0.036,0.3283,0.0026,139.998,45.000,31591.94420,1.92053,407.486,36.187,45.070,45.000,0.00,0.09,-272.77,-272.83,-8,519,-934,21.1,9.7,-12.1,21.2,9.7,-12.0,5.73,2.08,-10.8,27.2
2016-05-15 00:37:00,0.0,1.91429,0.00042,405.841,0.025,0.3288,0.0029,140.000,45.000,31594.02615,1.92050,407.461,36.185,45.070,45.000,0.00,0.09,-272.77,-272.82,-7,519,-934,21.1,9.7,-12.1,21.2,9.7,-12.0,5.73,1.78,-10.8,27.3
2016-05-15 00:38:00,0.0,1.91458,0.00034,405.853,0.045,0.3296,0.0020,140.001,45.000,31593.76289,1.92085,407.476,36.181,45.070,45.000,0.00,0.08,-272.77,-272.84,-6,519,-930,21.1,9.7,-12.1,21.2,9.7,-12.0,5.73,1.92,-10.8,27.3
2016-05-15 00:39:00,0.0,1.91436,0.00043,405.856,0.041,0.3316,0.0022,139.999,45.000,31593.93606,1.92069,407.489,36.180,45.070,45.000,0.00,0.09,-272.78,-272.83,-5,523,-934,21.1,9.8,-12.0,21.2,9.7,-12.0,5.73,2.00,-10.8,27.3
2016-05-15 00:40:00,0.0,1.91428,0.00031,405.852,0.030,0.3304,0.0023,140.000,45.000,31596.21588,1.92056,407.481,36.171,45.070,45.000,0.00,0.09,-272.77,-272.83,-6,521,-934,21.1,9.7,-12.1,21.2,9.7,-11.9,5.73,1.74,-10.8,27.3
2016-05-15 00:41:00,0.0,1.91426,0.00046,405.853,0.036,0.3314,0.0028,139.996,45.000,31595.52933,1.92055,407.484,36.187,45.070,45.000,0.00,0.08,-272.77,-272.83,-7,518,-934,21.1,9.8,-12.0,21.2,9.7,-12.0,5.73,2.06,-10.8,27.3
2016-05-15 00:42:00,0.0,1.91397,0.00029,405.842,0.037,0.3321,0.0017,140.001,45.000,31596.51417,1.92031,407.477,36.180,45.070,45.000,0.00,0.09,-272.78,-272.83,-7,519,-934,21.1,9.8,-12.0,21.2,9.8,-11.9,5.73,1.84,-10.8,27.3
2016-05-15 00:43:00,0.0,1.91420,0.00033,405.843,0.040,0.3315,0.0026,140.001,45.000,31597.23463,1.92048,407.477,36.182,45.070,45.000,0.00,0.09,-272.76,-272.84,-8,519,-934,21.0,9.8,-12.1,21.2,9.8,-11.9,5.73,1.86,-10.8,27.3
2016-05-15 00:44:00,0.0,1.91412,0.00040,405.833,0.032,0.3312,0.0016,140.000,45.000,31598.19650,1.92041,407.464,36.188,45.070,45.000,0.00,0.08,-272.77,-272.83,-7,519,-934,21.0,9.8,-12.1,21.2,9.7,-12.0,5.73,2.05,-10.8,27.3
2016-05-15 00:45:00,0.0,1.91399,0.00033,405.851,0.032,0.3337,0.0027,140.000,45.000,31597.31164,1.92036,407.497,36.190,45.070,45.000,0.00,0.09,-272.77,-272.84,-8,519,-934,21.0,9.8,-12.0,21.2,9.8,-11.9,5.73,1.74,-10.8,27.3
2016-05-15 00:46:00,0.0,1.91403,0.00037,405.842,0.032,0.3302,0.0025,139.999,45.000,31596.79121,1.92032,407.467,36.233,45.070,45.000,0.00,0.09,-272.77,-272.83,-7,519,-934,21.0,9.7,-12.1,21.2,9.7,-12.0,5.73,2.02,-10.8,27.3
2016-05-15 00:47:00,0.0,1.91410,0.00038,405.859,0.033,0.3286,0.0023,140.003,45.000,31597.23836,1.92031,407.476,36.229,45.069,45.000,0.00,0.09,-272.78,-272.82,-8,519,-934,21.1,9.7,-12.1,21.2,9.7,-12.1,5.73,1.91,-10.8,27.3
2016-05-15 00:48:00,0.0,1.91427,0.00050,405.868,0.029,0.3312,0.0027,140.003,45.000,31596.80181,1.92058,407.500,36.244,45.069,45.000,0.00,0.09,-272.77,-272.84,-7,519,-934,21.0,9.7,-12.1,21.2,9.7,-12.0,5.73,1.80,-10.8,27.3
2016-05-15 00:49:00,0.0,1.91397,0.00051,405.872,0.020,0.3308,0.0024,140.002,45.000,31596.55214,1.92024,407.502,36.243,45.069,45.000,0.00,0.09,-272.78,-272.83,-8,519,-934,21.0,9.7,-12.1,21.2,9.7,-12.0,5.73,2.07,-10.8,27.3
2016-05-15 00:50:00,0.0,1.91429,0.00041,405.866,0.023,0.3295,0.0022,140.000,45.000,31597.11675,1.92061,407.488,36.249,45.069,45.000,0.00,0.09,-272.77,-272.83,-7,519,-934,21.0,9.7,-12.2,21.1,9.7,-12.1,5.73,1.76,-10.8,27.3
2016-05-15 00:51:00,0.0,1.91402,0.00038,405.834,0.025,0.3321,0.0019,140.000,45.000,31597.98846,1.92029,407.471,36.248,45.070,45.000,0.00,0.08,-272.77,-272.83,-7,519,-934,21.0,9.8,-12.0,21.2,9.7,-12.0,5.73,1.96,-10.8,27.3
2016-05-15 00:52:00,0.0,1.91405,0.00034,405.848,0.035,0.3343,0.0018,140.000,45.000,31598.24486,1.92042,407.493,36.209,45.070,45.000,0.00,0.08,-272.78,-272.83,-8,519,-934,21.0,9.9,-12.0,21.2,9.8,-11.9,5.73,1.98,-10.8,27.3
2016-05-15 00:53:00,0.0,1.91430,0.00035,405.863,0.036,0.3345,0.0014,140.001,45.000,31597.59311,1.92066,407.512,36.213,45.070,45.000,0.00,0.09,-272.77,-272.83,-7,519,-934,21.0,9.9,-12.0,21.1,9.8,-11.9,5.73,1.75,-10.8,27.3
2016-05-15 00:54:00,0.0,1.91437,0.00030,405.854,0.045,0.3354,0.0026,140.000,45.000,31596.77689,1.92074,407.506,36.226,45.070,45.000,0.00,0.08,-272.77,-272.83,-8,519,-934,21.0,9.9,-12.0,21.1,9.8,-11.9,5.73,2.07,-10.8,27.3
2016-05-15 00:55:00,0.0,1.91451,0.00031,405.900,0.029,0.3323,0.0016,140.002,45.000,31596.15464,1.92083,407.539,36.234,45.070,45.000,0.00,0.09,-272.78,-272.83,-7,519,-934,21.0,9.8,-12.1,21.1,9.8,-11.9,5.73,1.81,-10.8,27.3
2016-05-15 00:56:00,0.0,1.91440,0.00047,405.892,0.027,0.3307,0.0016,140.000,45.000,31596.61660,1.92067,407.520,36.249,45.070,45.000,0.00,0.08,-272.77,-272.83,-8,519,-934,21.0,9.8,-12.1,21.1,9.7,-12.0,5.73,1.89,-10.8,27.3
2016-05-15 00:57:00,0.0,1.91423,0.00051,405.883,0.028,0.3338,0.0023,140.001,45.000,31599.32275,1.92063,407.528,36.239,45.070,45.000,0.00,0.09,-272.77,-272.82,-7,519,-934,21.0,9.9,-12.0,21.1,9.8,-12.0,5.73,2.03,-10.8,27.3
2016-05-15 00:58:00,0.0,1.91412,0.00032,405.863,0.041,0.3337,0.0016,140.001,45.000,31599.71954,1.92048,407.507,36.215,45.070,45.000,0.00,0.09,-272.77,-272.84,-8,519,-934,21.0,9.9,-12.0,21.1,9.8,-11.9,5.73,1.74,-10.8,27.2
2016-05-15 00:59:00,0.0,1.91425,0.00051,405.874,0.032,0.3301,0.0026,140.003,45.000,31599.77922,1.92049,407.500,36.196,45.070,45.000,0.00,0.08,-272.78,-272.84,-7,519,-934,21.0,9.8,-12.1,21.1,9.8,-12.0,5.73,2.05,-10.8,27.3
2016-05-15 01:00:00,0.0,1.91392,0.00032,405.876,0.037,0.3308,0.0024,140.000,45.000,31599.79561,1.92023,407.506,36.200,45.070,45.000,0.00,0.09,-272.77,-272.83,-7,519,-934,20.9,9.8,-12.1,21.1,9.7,-12.0,5.73,1.87,-10.8,27.3
2016-05-15 01:01:00,0.0,1.91394,0.00032,405.872,0.042,0.3281,0.0030,140.000,45.000,31601.54885,1.92018,407.488,36.213,45.070,45.000,0.00,0.09,-272.77,-272.83,-8,519,-934,20.9,9.7,-12.2,21.1,9.7,-12.0,5.73,1.84,-10.8,27.3
2016-05-15 01:02:00,0.0,1.91398,0.00026,405.873,0.031,0.3273,0.0016,140.001,45.000,31602.91203,1.92019,407.486,36.243,45.070,45.000,0.00,0.08,-272.79,-272.83,-7,519,-934,20.9,9.7,-12.2,21.1,9.6,-12.1,5.73,2.07,-10.8,27.3
2016-05-15 01:03:00,0.0,1.91387,0.00041,405.876,0.027,0.3296,0.0018,139.999,45.000,31603.70048,1.92016,407.500,36.270,45.070,45.000,0.00,0.09,-272.77,-272.83,-8,519,-935,20.9,9.7,-12.2,21.1,9.7,-12.1,5.73,1.74,-10.8,27.3
2016-05-15 01:04:00,0.0,1.91380,0.00043,405.883,0.033,0.3275,0.0016,139.998,45.000,31602.62920,1.92006,407.495,36.312,45.070,45.000,0.00,0.09,-272.77,-272.82,-6,519,-935,20.9,9.7,-12.2,21.1,9.7,-12.1,5.73,2.01,-10.8,27.3
2016-05-15 01:05:00,0.0,1.91395,0.00038,405.899,0.036,0.3283,0.0019,140.000,45.000,31601.22575,1.92014,407.517,36.311,45.069,44.999,0.00,0.09,-272.78,-272.83,-8,519,-934,20.9,9.7,-12.2,21.1,9.7,-12.1,5.73,1.92,-10.7,27.3
2016-05-15 01:06:00,0.0,1.91411,0.00047,405.900,0.036,0.3289,0.0019,139.999,45.000,31600.08941,1.92034,407.521,36.265,45.069,45.000,0.00,0.08,-272.77,-272.83,-7,519,-934,20.9,9.7,-12.2,21.1,9.7,-12.1,5.73,1.79,-10.8,27.3
2016-05-15 01:07:00,0.0,1.91408,0.00039,405.895,0.032,0.3281,0.0023,139.999,45.000,31600.06939,1.92033,407.511,36.282,45.069,45.000,0.00,0.09,-272.77,-272.82,-8,519,-934,20.9,9.7,-12.2,21.1,9.7,-12.1,5.73,2.08,-10.8,27.3
2016-05-15 01:08:00,0.0,1.91383,0.00032,405.870,0.039,0.3293,0.0023,140.000,45.000,31600.84954,1.92011,407.494,36.307,45.070,45.000,0.00,0.09,-272.77,-272.83,-7,519,-934,20.9,9.7,-12.2,21.1,9.7,-12.1,5.73,1.77,-10.8,27.3
2016-05-15 01:09:00,0.0,1.91379,0.00040,405.861,0.037,0.3290,0.0022,140.000,45.000,31602.66345,1.92003,407.481,36.313,45.070,45.000,0.00,0.08,-272.77,-272.84,-7,519,-934,20.9,9.7,-12.2,21.1,9.7,-12.1,5.73,1.95,-10.8,27.3
2016-05-15 01:10:00,0.0,1.91378,0.00034,405.875,0.025,0.3276,0.0025,140.000,45.000,31601.72705,1.92002,407.488,36.319,45.070,45.000,0.00,0.09,-272.77,-272.83,-7,519,-934,20.9,9.7,-12.2,21.1,9.7,-12.1,5.73,1.98,-10.8,27.2
2016-05-15 01:11:00,0.0,1.91373,0.00030,405.885,0.046,0.3266,0.0014,139.998,45.000,31600.12875,1.91994,407.494,36.330,45.069,45.000,0.00,0.09,-272.76,-272.84,-7,519,-934,20.9,9.7,-12.2,21.0,9.7,-12.1,5.73,1.75,-10.7,27.2
2016-05-15 01:12:00,0.0,1.91399,0.00031,405.859,0.023,0.3281,0.0026,140.000,45.000,31601.42674,1.92019,407.474,36.313,45.069,45.000,0.00,0.08,-272.78,-272.84,-8,519,-934,20.9,9.7,-12.2,21.0,9.7,-12.2,5.73,2.07,-10.8,27.2
2016-05-15 01:13:00,0.0,1.91384,0.00033,405.865,0.034,0.3289,0.0018,140.000,45.000,31602.73775,1.92011,407.485,36.309,45.070,45.000,0.00,0.09,-272.77,-272.83,-7,519,-934,20.9,9.8,-12.1,21.0,9.7,-12.1,5.73,1.81,-10.8,27.2
2016-05-15 01:14:00,0.0,1.91387,0.00033,405.880,0.031,0.3286,0.0017,140.000,45.000,31601.57200,1.92013,407.499,36.288,45.070,45.000,0.00,0.09,-272.76,-272.83,-8,519,-934,20.9,9.8,-12.2,21.1,9.7,-12.1,5.73,1.88,-10.7,27.2
2016-05-15 01:15:00,0.0,1.91383,0.00040,405.878,0.033,0.3293,0.0022,140.001,45.000,31601.11434,1.92009,407.501,36.284,45.070,45.000,0.00,0.08,-272.79,-272.83,-6,518,-934,20.9,9.8,-12.2,21.1,9.7,-12.1,5.73,2.04,-10.7,27.2
2016-05-15 01:16:00,0.0,1.91366,0.00048,405.883,0.035,0.3301,0.0024,140.000,45.000,31601.72061,1.91994,407.507,36.313,45.070,45.001,0.00,0.09,-272.78,-272.83,-8,519,-935,20.9,9.8,-12.1,21.0,9.8,-12.1,5.73,1.73,-10.7,27.3
2016-05-15 01:17:00,0.0,1.91353,0.00048,405.863,0.032,0.3311,0.0011,139.999,45.000,31601.81647,1.91982,407.495,36.320,45.070,45.000,0.00,0.09,-272.77,-272.83,-7,518,-935,20.9,9.8,-12.1,21.0,9.8,-12.0,5.73,2.03,-10.8,27.3
2016-05-15 01:18:00,0.0,1.91367,0.00039,405.858,0.021,0.3310,0.0020,139.997,45.000,31602.11591,1.91996,407.488,36.326,45.070,45.000,0.00,0.09,-272.78,-272.83,-7,519,-935,20.9,9.8,-12.1,21.0,9.8,-12.0,5.73,1.89,-10.8,27.3
2016-05-15 01:19:00,0.0,1.91357,0.00040,405.847,0.035,0.3320,0.0017,139.999,45.000,31601.83326,1.91989,407.483,36.326,45.070,45.000,0.00,0.08,-272.78,-272.84,-7,518,-935,20.9,9.9,-12.1,21.0,9.8,-12.0,5.73,1.81,-10.7,27.3
2016-05-15 01:20:00,0.0,1.91353,0.00036,405.844,0.039,0.3320,0.0021,139.998,45.000,31602.11053,1.91987,407.480,36.333,45.070,45.000,0.00,0.08,-272.77,-272.82,-7,518,-935,20.9,9.8,-12.1,21.1,9.8,-12.0,5.73,2.08,-10.7,27.3
2016-05-15 01:21:00,0.0,1.91345,0.00038,405.852,0.038,0.3323,0.0014,139.998,45.000,31601.88229,1.91976,407.488,36.343,45.070,45.000,0.00,0.09,-272.77,-272.83,-8,519,-935,20.9,9.8,-12.1,21.0,9.8,-12.0,5.73,1.77,-10.7,27.3
2016-05-15 01:22:00,0.0,1.91324,0.00034,405.833,0.031,0.3352,0.0027,140.000,45.000,31602.46368,1.91963,407.485,36.375,45.070,45.000,0.00,0.08,-272.77,-272.83,-6,518,-935,20.9,9.9,-12.0,21.0,9.9,-11.9,5.73,1.96,-10.7,27.3
2016-05-15 01:23:00,0.0,1.91340,0.00043,405.826,0.025,0.3357,0.0017,139.997,45.000,31601.53412,1.91976,407.480,36.387,45.069,45.000,0.00,0.09,-272.78,-272.83,-8,518,-935,20.9,9.9,-11.9,21.0,9.9,-11.9,5.73,1.99,-10.7,27.2
2016-05-15 01:24:00,0.0,1.91346,0.00035,405.832,0.028,0.3381,0.0013,140.000,45.000,31602.57914,1.91986,407.496,36.378,45.069,45.000,0.00,0.09,-272.77,-272.83,-7,518,-935,20.9,10.0,-11.9,21.0,9.9,-11.8,5.73,1.75,-10.7,27.3
2016-05-15 01:25:00,0.0,1.91337,0.00047,405.834,0.032,0.3374,0.0014,140.000,45.000,31601.94681,1.91981,407.498,36.379,45.069,45.000,0.00,0.08,-272.77,-272.84,-8,519,-935,20.9,10.0,-11.9,21.1,10.0,-11.8,5.73,2.07,-10.7,27.3
2016-05-15 01:26:00,0.0,1.91342,0.00051,405.816,0.044,0.3406,0.0023,140.003,45.000,31601.95071,1.91987,407.494,36.384,45.069,45.000,0.00,0.09,-272.77,-272.84,-7,518,-935,20.9,10.0,-11.8,21.0,10.0,-11.7,5.73,1.84,-10.7,27.3
2016-05-15 01:27:00,0.0,1.91322,0.00041,405.823,0.025,0.3416,0.0014,139.999,45.000,31600.81861,1.91974,407.504,36.378,45.070,45.000,0.00,0.09,-272.76,-272.83,-7,518,-934,20.9,10.1,-11.8,21.0,10.0,-11.7,5.73,1.85,-10.7,27.2
2016-05-15 01:28:00,0.0,1.91307,0.00041,405.816,0.022,0.3435,0.0024,139.995,45.000,31600.30811,1.91959,407.509,36.375,45.070,45.000,0.00,0.09,-272.77,-272.83,-8,518,-934,20.9,10.2,-11.7,21.0,10.1,-11.6,5.73,2.05,-10.7,27.3
2016-05-15 01:29:00,0.0,1.91302,0.00028,405.788,0.026,0.3417,0.0017,140.002,45.000,31602.83698,1.91951,407.471,36.374,45.070,45.000,0.00,0.09,-272.78,-272.83,-7,518,-934,20.9,10.1,-11.7,21.0,10.1,-11.6,5.73,1.74,-10.7,27.3
2016-05-15 01:30:00,0.0,1.91306,0.00039,405.782,0.033,0.3434,0.0024,139.999,45.000,31602.42456,1.91959,407.473,36.375,45.070,45.000,0.00,0.09,-272.77,-272.83,-8,518,-935,20.9,10.1,-11.7,21.0,10.1,-11.6,5.73,2.00,-10.7,27.2
2016-05-15 01:31:00,0.0,1.91242,0.00043,405.750,0.031,0.3461,0.0015,140.000,45.000,31603.47902,1.91906,407.457,36.375,45.070,45.000,0.00,0.09,-272.77,-272.82,-6,518,-935,20.9,10.2,-11.6,21.1,10.2,-11.5,5.73,1.94,-10.7,27.3
2016-05-15 01:32:00,0.0,1.91248,0.00038,405.776,0.037,0.3453,0.0018,140.001,45.000,31603.10976,1.91903,407.475,36.375,45.070,45.000,0.00,0.08,-272.77,-272.84,-8,518,-935,20.9,10.2,-11.6,21.0,10.2,-11.5,5.73,1.78,-10.7,27.2
2016-05-15 01:33:00,0.0,1.91251,0.00023,405.771,0.029,0.3466,0.0019,140.000,45.000,31602.57169,1.91908,407.480,36.375,45.070,45.000,0.00,0.08,-272.77,-272.83,-7,518,-935,20.9,10.3,-11.5,21.0,10.2,-11.5,5.73,2.08,-10.7,27.2
2016-05-15 01:34:00,0.0,1.91259,0.00035,405.762,0.023,0.3509,0.0018,139.999,45.000,31601.14141,1.91927,407.491,36.388,45.070,45.000,0.00,0.09,-272.77,-272.82,-8,518,-935,20.9,10.4,-11.4,21.1,10.3,-11.3,5.73,1.80,-10.7,27.3
2016-05-15 01:35:00,0.0,1.91236,0.00035,405.740,0.036,0.3516,0.0018,139.996,45.000,31600.36003,1.91903,407.472,36.423,45.070,45.000,0.00,0.08,-272.77,-272.83,-7,518,-935,20.9,10.4,-11.3,21.0,10.4,-11.3,5.73,1.90,-10.7,27.3
2016-05-15 01:36:00,0.0,1.91220,0.00045,405.691,0.046,0.3540,0.0020,139.999,45.000,31602.69799,1.91897,407.437,36.435,45.070,45.000,0.00,0.08,-272.78,-272.83,-7,519,-935,20.9,10.5,-11.3,21.1,10.4,-11.2,5.73,2.03,-10.7,27.3
2016-05-15 01:37:00,0.0,1.91187,0.00047,405.687,0.034,0.3556,0.0023,139.999,45.000,31604.23771,1.91861,407.439,36.435,45.069,45.000,0.00,0.09,-272.76,-272.83,-8,518,-935,21.0,10.5,-11.2,21.0,10.5,-11.2,5.73,1.74,-10.7,27.3
2016-05-15 01:38:00,0.0,1.91173,0.00047,405.686,0.036,0.3591,0.0014,139.998,45.000,31601.35625,1.91856,407.458,36.438,45.069,45.000,0.00,0.09,-272.77,-272.83,-6,519,-935,20.9,10.6,-11.1,21.1,10.6,-11.0,5.73,2.04,-10.7,27.3
2016-05-15 01:39:00,0.0,1.91164,0.00044,405.630,0.038,0.3613,0.0026,139.999,45.000,31601.08728,1.91852,407.411,36.438,45.069,45.000,0.00,0.09,-272.78,-272.83,-8,518,-935,21.0,10.7,-11.0,21.1,10.7,-10.9,5.73,1.89,-10.7,27.3
2016-05-15 01:40:00,0.0,1.91102,0.00036,405.572,0.027,0.3674,0.0020,140.002,45.000,31602.04772,1.91800,407.382,36.438,45.069,45.000,0.00,0.09,-272.77,-272.83,-7,519,-935,21.0,10.9,-10.7,21.1,10.8,-10.7,5.73,1.80,-10.7,27.3
2016-05-15 01:41:00,0.0,1.91090,0.00047,405.545,0.023,0.3697,0.0012,140.001,45.000,31603.43820,1.91795,407.367,36.438,45.070,45.000,0.00,0.09,-272.77,-272.83,-8,519,-935,21.0,11.0,-10.6,21.1,10.9,-10.6,5.73,2.07,-10.7,27.3
2016-05-15 01:42:00,0.0,1.91066,0.00032,405.519,0.038,0.3719,0.0014,140.002,45.000,31604.69181,1.91772,407.354,36.439,45.070,45.000,0.00,0.09,-272.78,-272.83,-7,518,-934,21.0,11.0,-10.6,21.1,11.0,-10.5,5.73,1.77,-10.7,27.3
2016-05-15 01:43:00,0.0,1.91081,0.00040,405.539,0.042,0.3679,0.0023,140.002,45.000,31602.93308,1.91779,407.351,36.449,45.070,45.000,0.00,0.08,-272.78,-272.83,-8,519,-935,20.9,10.9,-10.7,21.1,10.9,-10.6,5.73,1.94,-10.7,27.3
2016-05-15 01:44:00,0.0,1.91111,0.00041,405.553,0.036,0.3665,0.0019,140.000,45.000,31603.53317,1.91808,407.361,36.456,45.070,45.000,0.00,0.09,-272.77,-272.82,-8,518,-935,21.0,10.9,-10.8,21.1,10.9,-10.7,5.73,2.00,-10.7,27.3
2016-05-15 01:45:00,0.0,1.91124,0.00035,405.537,0.033,0.3684,0.0044,140.000,45.000,31602.00305,1.91820,407.351,36.466,45.070,45.000,0.00,0.09,-272.77,-272.83,-7,519,-935,21.0,10.9,-10.7,21.1,10.9,-10.7,5.73,1.74,-10.7,27.3